Tracking 31011 objects as of 12-Jul-2025
HD Live streaming from Space Station
objects crossing your sky now

FENGYUN 1C DEB

Track FENGYUN 1C DEB now!
10-day predictions


NORAD ID: 31665
Int'l Code: 1999-025CBX
Perigee: 818.9 km
Apogee: 1,093.3 km
Inclination: 98.5 °
Period: 104.0 minutes
Semi major axis: 7327 km
RCS: 0.0067 m2 (small)
Launch date: May 10, 1999
Source: People's Republic of China (PRC)
Launch site: Taiyaun Space Center, China (TSC)

Note: This is SATELLITE DEBRIS
Your satellite tracking list
Your tracking list is empty




NASA's NSSDC Master Catalog

Two Line Element Set (TLE):
1 31665U 99025CBX 25189.61904836  .00001104  00000-0  89488-3 0  9994
2 31665  98.4608 248.0200 0187278 256.5729 101.4495 13.84221180910175
Source of the keplerian elements: AFSPC